Overview Statistics Trail Chart Weather Telemetry Raw packets
 

This is the latest recevied weather packets stored in our database for station/object HS2GJW-1. If no packets are shown the sender has not sent any weather packets the latest 10 day(s).

<< 8 9 10 11 12 13 14 >>
Time Temp. Humidity Pressure Rain* Wind** Luminosity Snow
1788349771 32.78° C 80% 1007 hPa - - 0 W/m² -
1788349147 32.78° C 78% 1007 hPa - - 0 W/m² -
1788348523 32.78° C 77% 1007 hPa - - 0 W/m² -
1788347898 33.33° C 76% 1007 hPa - - 0 W/m² -
1788347273 33.33° C 76% 1007 hPa - - 0 W/m² -
1788346648 33.33° C 76% 1007 hPa - - 0 W/m² -
1788346028 33.33° C 77% 1007 hPa - - 0 W/m² -
1788345397 33.89° C 74% 1007 hPa - - 0 W/m² -
1788344772 33.89° C 74% 1007 hPa - - 0 W/m² -
1788344146 33.89° C 74% 1007 hPa - - 0 W/m² -
1788343519 34.44° C 71% 1006 hPa - - 0 W/m² -
1788342893 34.44° C 68% 1007 hPa - - 0 W/m² -
1788342268 34.44° C 69% 1007 hPa - - 0 W/m² -
1788341644 34.44° C 69% 1007 hPa - - 0 W/m² -
1788341020 34.44° C 69% 1007 hPa - - 0 W/m² -
1788340395 34.44° C 68% 1007 hPa - - 0 W/m² -
1788339770 35° C 69% 1007 hPa - - 0 W/m² -
1788339146 34.44° C 71% 1007 hPa - - 0 W/m² -
1788338522 33.89° C 70% 1007 hPa - - 0 W/m² -
1788337898 34.44° C 69% 1007 hPa - - 0 W/m² -
1788337273 34.44° C 71% 1007 hPa - - 0 W/m² -
1788336648 34.44° C 70% 1007 hPa - - 0 W/m² -
1788336024 33.89° C 69% 1008 hPa - - 0 W/m² -
1788273647 30° C 99% 1012 hPa - - 0 W/m² -
1788273023 30.56° C 99% 1012 hPa - - 0 W/m² -

* Rain since midnight (hover to see other rain measurements)
** Current wind speed in m/s (hover to see current wind gust speed)